Regional Weather Roundup
Issued by NWS Cleveland, OH

Home | Current Version | Previous Version | Text Only | Print | Product List | Glossary On
Versions: 1 2 3 4 5 6 7 8 9 10 11 12 13 14 15 16 17 18 19 20 21 22 23 24 25 26 27 28 29 30 31 32 33 34 35 36 37 38 39 40 41 42 43 44 45 46 47 48 49 50
345
ASUS41 KCLE 260612
RWRCLE
OHIO REGIONAL WEATHER ROUNDUP
NATIONAL WEATHER SERVICE WILMINGTON, OH
200 AM EDT WED APR 26 2017

NOTE: "FAIR" INDICATES FEW OR NO CLOUDS BELOW 12,000 FEET WITH NO
SIGNIFICANT WEATHER AND/OR OBSTRUCTIONS TO VISIBILITY.

OHZ001>008-015>018-024>027-034-035-043-044-260700-
   NORTHWEST OHIO

CITY           SKY/WX    TMP DP  RH WIND       PRES   REMARKS
DEFIANCE       FAIR      55  51  86 E6        29.68F
FINDLAY        FAIR      62  52  69 SE10      29.71S
TOLEDO EXPRESS FAIR      56  54  93 CALM      29.71S
TOLEDO EXEC    FAIR      58  54  86 SE8       29.72S
LIMA           FAIR      62  54  74 SE9       29.71S
$$

OHZ009>014-019>023-028>033-038-089-260700-
   NORTHEAST OHIO

CITY           SKY/WX    TMP DP  RH WIND       PRES   REMARKS
CLE-HOPKINS    FAIR      59  51  75 S7        29.77S
CLE-LAKEFRONT  FAIR      60  52  74 SE9       29.74F
CUY CO. ARPT   NOT AVBL
LORAIN-ELYRIA  FAIR      57  51  80 S8        29.76R
ASHTABULA      FAIR      56  53  90 S5        29.79S
AKRON-CANTON   FAIR      56  51  84 E8        29.78S
WOOSTER        FAIR      52  51  97 CALM      29.77S
MANSFIELD      FAIR      56  54  93 SE8       29.76S
YOUNGSTOWN     FAIR      52  50  93 E6        29.79F
$$

OHZ042-051>053-060>062-070>072-077>081-260700-
  SOUTHWEST OHIO

CITY           SKY/WX    TMP DP  RH WIND       PRES   REMARKS
CINC-COVINGTON FAIR      59  55  87 S7        29.69F
CINC-LUNKEN    FAIR      56  56 100 CALM      29.70F
HAMILTON       FAIR      59  57  93 CALM      29.70F
DAYTON         FAIR      60  55  83 SE6       29.72R
WRIGHT-PAT AFB FAIR      61  57  89 CALM      29.71S
DAYTON GENERAL FAIR      62  56  80 SE6       29.70F
WILMINGTON     FAIR      59  56  89 SE5       29.72S
$$

OHZ036-037-039>041-045>050-054>059-063>069-073>076-082>088-260700-
  CENTRAL AND SOUTHEAST OHIO

CITY           SKY/WX    TMP DP  RH WIND       PRES   REMARKS
COLUMBUS       FAIR      60  55  83 E7        29.74R
OSU AIRPORT    FAIR      59  54  83 E6        29.74R
BOLTON FIELD   FAIR      58  53  85 E3        29.75R
RICKENBACK AFB FAIR      58  53  85 CALM      29.74R
NEWARK         FAIR      55  52  89 CALM      29.75R
MARION         FAIR      59  53  80 SE9       29.75R
LANCASTER      FAIR      56  52  86 CALM      29.75R
ZANESVILLE     FAIR      55  52  89 CALM      29.75S
NEW PHILLY     FAIR      54  52  93 CALM      29.77S
$$




USA.gov is the U.S. government's official web portal to all federal, state and local government web resources and services.